AirNav   ProFlight Series 2 Aviation Headset
 
 326 users online  

9MI1 Custer Main Heliport
Battle Creek, Michigan, USA

GOING TO BATTLE CREEK?


FAA INFORMATION EFFECTIVE 18 JUNE 2020

Location

FAA Identifier: 9MI1
Lat/Long: 42-19-54.0000N 085-17-48.0000W
42-19.900000N 085-17.800000W
42.3316667,-85.2966667
(estimated)
Elevation: 883 ft. / 269 m (estimated)
Variation: 04W (1990)
From city: 4 miles W of BATTLE CREEK, MI
Time zone: UTC -4 (UTC -5 during Standard Time)
Zip code: 49015

Heliport Operations

Heliport use: Private use. Permission required prior to landing
Activation date: 10/1992
Control tower: no
ARTCC: CHICAGO CENTER
FSS: LANSING FLIGHT SERVICE STATION
Attendance: CONTINUOUS
Wind indicator: yes
Segmented circle: no

Heliport Communications

WX ASOS at BTL (2.6 nm SE): PHONE 269-964-0283
WX ASOS at AZO (13 nm SW): 127.25 (269-459-3391)
WX AWOS-3 at RMY (16 nm E): 120.025 (269-781-9070)

Nearby radio navigation aids

VOR radial/distance  VOR name  Freq  Var
AZOr064/12.7KALAMAZOO VOR/DME109.0001W
LFDr309/28.6LITCHFIELD VOR/DME111.2005W
VIOr166/28.7VICTORY VOR/DME115.9504W
PMMr103/36.7PULLMAN VOR/DME112.1000E
ELXr073/38.4KEELER VOR/DME116.6000E

 
NDB name  Hdg/Dist  Freq  Var  ID
BATOL254/5.327204WBT -... -
STURGIS015/31.738204WIRS .. .-. ...

Heliport Services

Runway Information

Helipad H1

Dimensions: 22 x 22 ft. / 7 x 7 m
Surface: concrete
Traffic pattern: leftleft

Heliport Ownership and Management from official FAA records

Ownership: Publicly-owned
Owner: DEPT OF DEFENSE
2501 26TH ST
AUGUSTA, MI 49012
Phone 616-731-4384
Manager: MAJOR PATRICK WILK
2501 26TH ST
AUGUSTA, MI 49012
Phone (269) 282-7555
MICHIGAN ARMY NATL GUARD.

Additional Remarks

A52-H1 20 FT WINDSOCK 75 FT W; 30 FT PLINES 600 FT E.
FOR CD CTC GREAT LAKES APCH AT 269-459-3345, WHEN APCH CLSD CTC CHICAGO ARTCC AT 630-906-8921.

Instrument Procedures

There are no published instrument procedures at 9MI1.

Some nearby airports with instrument procedures:

KBTL - W K Kellogg Airport (3 nm SE)
KAZO - Kalamazoo/Battle Creek International Airport (13 nm SW)
KRMY - Brooks Field Airport (16 nm E)
9D9 - Hastings Airport (20 nm N)
KFPK - Fitch H Beach Airport (26 nm NE)
 
Loc | Ops | Rwys | IFR | FBO | Links
Com | Nav | Svcs | Stats | Notes
Area around 9MI1 (Custer Main Heliport)
 
Road maps at: MapQuest Bing Google
 
Aerial photo
No photo
 
Sectional chart

 
Airport distance calculator
Flying to Custer Main Heliport? Find the distance to fly.

From to 9MI1

Sunrise and sunset
Times for 09-Jul-2020
 Local
(UTC-4)
 Zulu
(UTC)
Morning civil twilight05:4109:41
Sunrise06:1510:15
Sunset21:1801:18
Evening civil twilight21:5201:52

Current date and time
Zulu (UTC)  09-Jul-2020 07:14:37
Local (UTC-4)  09-Jul-2020 03:14:37
 
METAR
KBTL 
3nm E 
090653Z AUTO 18003KT 10SM CLR 23/21 A2993 RMK AO2 SLP126 T02330211
KAZO 
13nm SW 
090653Z AUTO 18003KT 10SM CLR 23/21 A2992 RMK AO2 SLP123 T02330206
KRMY 
16nm E 
090656Z AUTO 00000KT 10SM CLR 22/21 A2992 RMK AO2 T02220210
TAF
KBTL 
3nm E 
090540Z 0906/1006 VRB03KT P6SM BKN250 FM091400 20008KT P6SM BKN050 FM091900 22008KT P6SM VCTS BKN050CB PROB30 0920/0923 2SM TSRA BKN040CB FM100100 26005KT P6SM BKN080
KAZO 
13nm SW 
090540Z 0906/1006 VRB03KT P6SM BKN250 FM091400 20008KT P6SM BKN050 FM091800 20008KT P6SM VCTS BKN050CB PROB30 0919/0922 2SM TSRA BKN040CB FM100000 26005KT P6SM BKN080
NOTAMs
Click for the latest NOTAMs
NOTAMs are issued by the DoD/FAA and will open in a separate window not controlled by AirNav.

 

 
 

Would you like to see your business listed on this page?

 If your business provides an interesting product or service to pilots, flight crews, aircraft, or users of the Custer Main Heliport, you should consider listing it here.  To start the listing process, click on the button below
 
Add a business
 

Other Pages about Custer Main Heliport

Update a link
 
Copyright © AirNav, LLC. All rights reserved. Privacy Policy  Contact